Location: Allentsteig
(48.6833°N, 15.3167°E)
Time: 06:36:09
(UTC+00:00)

NOSS 3-2 (A) - Pass Details

Date: 18 September 2020
Orbit: 795 x 1413 km, 63.4° (Epoch: 02 October)

Event Time Altitude Azimuth Distance (km) Brightness Sun altitude
Rises 18:10:08 0° 317° (NW) 3,878 7.7 -11.5°
Reaches altitude 10° 18:12:41 10° 321° (NW) 3,005 7.0 -11.9°
Maximum altitude 18:19:57 65° 43° (NE) 1,357 4.1 -13.1°
Enters shadow 18:26:32 17° 122° (ESE) 2,848 5.3 -14.1°
